STARLINK-35913 (67004 NORAD) Tracking and Keplerian Element Data

This shows tracking and keplerian element data for the satellite.

Feedback or suggestion? Click here.




ElementValue
Catalog67004
NameSTARLINK-35913
Epoch Orbit138
Epoch Day354.25003472
Epoch Year2025
RAAN301.9886
Inclination69.994
Eccentricity0.0003841
Argument of Perigee271.9953
Mean Anonmoly294.8112
Mean Motion15.91957951
Decay Rate-0.01067815
L11 67004U 25293B 25354.25003472 -.01067815 34102-3 -32254-2 0 9991
L22 67004 69.9940 301.9886 0003841 271.9953 294.8112 15.91957951 1384



Live tracking and technical data element details for STARLINK-35913 (NORAD 67004). STARLINK-35913 can be tracked NOW for your location showing map with azimuth and elevation plus other details from your city location.







IsCatalogInMostPopularTable: catalog: 67004, numindb: 17
Update: records affected: 1



GetName: 67004 STARLINK-35913

Hit Count: updated at: Fri, 16 Jan 2026 08:47:57 GMT